Location: Aalsum
(53.3404°N, 6.0062°E)
Time: 04:26:07
(UTC+00:00)

SL-16 R/B - Pass Details

Date: 28 January 2023
Orbit: 842 x 846 km, 71.0° (Epoch: 24 March)

Event Time Altitude Azimuth Distance (km) Brightness Sun altitude
Rises 19:58:00 0° 224° (SW) 3,392 5.7 -33.5°
Reaches altitude 10° 20:00:28 10° 229° (SW) 2,461 4.9 -33.9°
Enters shadow 20:03:58 37° 248° (WSW) 1,293 3.4 -34.4°
